Time,TemperatureF,DewpointF,PressureIn,WindDirection,WindDirectionDegrees,WindSpeedMPH,WindSpeedGustMPH,Humidity,HourlyPrecipIn,Conditions,Clouds,dailyrainin,SoftwareType,DateUTC
2017-10-20 00:00:00,57.5,24.0,29.66,South,180,6.0,-999.0,27,0.00,,,0.00,,2017-10-20 06:00:00,
2017-10-20 00:05:00,57.5,25.0,29.65,SE,135,5.0,-999.0,29,0.00,,,0.00,,2017-10-20 06:05:00,
2017-10-20 00:10:00,57.3,25.0,29.66,ESE,113,7.0,-999.0,29,0.00,,,0.00,,2017-10-20 06:10:00,
2017-10-20 00:15:00,57.8,25.0,29.65,South,180,5.0,-999.0,29,0.00,,,0.00,,2017-10-20 06:15:00,
2017-10-20 00:20:00,57.2,25.0,29.65,South,180,8.0,-999.0,29,0.00,,,0.00,,2017-10-20 06:20:00,
2017-10-20 00:25:00,56.7,25.0,29.65,SSE,158,6.0,-999.0,30,0.00,,,0.00,,2017-10-20 06:25:00,
2017-10-20 00:30:00,56.7,25.0,29.64,WSW,248,3.0,-999.0,30,0.00,,,0.00,,2017-10-20 06:30:00,
2017-10-20 00:35:00,56.3,25.0,29.65,SE,135,4.0,-999.0,30,0.00,,,0.00,,2017-10-20 06:35:00,
2017-10-20 00:41:00,56.7,25.0,29.64,WSW,248,6.0,-999.0,30,0.00,,,0.00,,2017-10-20 06:41:00,
2017-10-20 00:46:00,56.7,25.0,29.64,SSE,158,5.0,-999.0,30,0.00,,,0.00,,2017-10-20 06:46:00,
2017-10-20 00:51:00,56.7,25.0,29.64,SE,135,6.0,-999.0,30,0.00,,,0.00,,2017-10-20 06:51:00,
2017-10-20 00:56:00,57.5,26.0,29.64,NE,45,7.0,-999.0,30,0.00,,,0.00,,2017-10-20 06:56:00,
2017-10-20 01:01:00,58.0,26.0,29.64,SE,135,8.0,-999.0,30,0.00,,,0.00,,2017-10-20 07:01:00,
2017-10-20 01:06:00,58.0,26.0,29.64,SSW,203,4.0,-999.0,30,0.00,,,0.00,,2017-10-20 07:06:00,
2017-10-20 01:11:00,57.7,26.0,29.64,ESE,113,6.0,-999.0,30,0.00,,,0.00,,2017-10-20 07:11:00,
2017-10-20 01:16:00,57.7,26.0,29.63,SW,225,5.0,-999.0,30,0.00,,,0.00,,2017-10-20 07:16:00,
2017-10-20 01:21:00,57.2,26.0,29.63,SE,135,4.0,-999.0,30,0.00,,,0.00,,2017-10-20 07:21:00,
2017-10-20 01:27:00,56.7,26.0,29.63,West,270,5.0,-999.0,30,0.00,,,0.00,,2017-10-20 07:27:00,
2017-10-20 01:32:00,56.9,26.0,29.63,SE,135,5.0,-999.0,30,0.00,,,0.00,,2017-10-20 07:32:00,
2017-10-20 01:37:00,56.9,26.0,29.63,SSE,158,5.0,-999.0,30,0.00,,,0.00,,2017-10-20 07:37:00,
2017-10-20 01:42:00,56.7,26.0,29.63,ESE,113,5.0,-999.0,30,0.00,,,0.00,,2017-10-20 07:42:00,
2017-10-20 01:47:00,56.7,27.0,29.64,East,90,0.0,-999.0,31,0.00,,,0.00,,2017-10-20 07:47:00,
2017-10-20 01:52:00,56.0,26.0,29.63,NNW,338,1.0,-999.0,31,0.00,,,0.00,,2017-10-20 07:52:00,
2017-10-20 01:57:00,55.5,26.0,29.63,WNW,293,4.0,-999.0,32,0.00,,,0.00,,2017-10-20 07:57:00,
2017-10-20 02:02:00,55.7,27.0,29.63,West,270,3.0,-999.0,32,0.00,,,0.00,,2017-10-20 08:02:00,
2017-10-20 02:07:00,56.5,26.0,29.63,ESE,113,4.0,-999.0,31,0.00,,,0.00,,2017-10-20 08:07:00,
2017-10-20 02:12:00,56.7,26.0,29.63,South,180,6.0,-999.0,30,0.00,,,0.00,,2017-10-20 08:12:00,
2017-10-20 02:17:00,57.7,26.0,29.63,South,180,6.0,-999.0,30,0.00,,,0.00,,2017-10-20 08:17:00,
2017-10-20 02:22:00,57.3,26.0,29.62,SSW,203,5.0,-999.0,30,0.00,,,0.00,,2017-10-20 08:22:00,
2017-10-20 02:27:00,57.7,26.0,29.62,South,180,4.0,-999.0,30,0.00,,,0.00,,2017-10-20 08:27:00,
2017-10-20 02:32:00,57.5,26.0,29.62,SE,135,6.0,-999.0,30,0.00,,,0.00,,2017-10-20 08:32:00,
2017-10-20 02:37:00,57.3,26.0,29.62,SW,225,5.0,-999.0,30,0.00,,,0.00,,2017-10-20 08:37:00,
2017-10-20 02:42:00,56.7,27.0,29.62,SE,135,2.0,-999.0,31,0.00,,,0.00,,2017-10-20 08:42:00,
2017-10-20 02:47:00,56.0,26.0,29.62,WSW,248,2.0,-999.0,31,0.00,,,0.00,,2017-10-20 08:47:00,
2017-10-20 02:52:00,55.7,27.0,29.62,ESE,113,0.0,-999.0,32,0.00,,,0.00,,2017-10-20 08:52:00,
2017-10-20 02:57:00,55.7,27.0,29.62,ESE,113,4.0,-999.0,32,0.00,,,0.00,,2017-10-20 08:57:00,
2017-10-20 03:02:00,56.0,27.0,29.62,WNW,293,2.0,-999.0,32,0.00,,,0.00,,2017-10-20 09:02:00,
2017-10-20 03:07:00,55.5,26.0,29.62,West,270,3.0,-999.0,32,0.00,,,0.00,,2017-10-20 09:07:00,
2017-10-20 03:12:00,55.7,27.0,29.62,South,180,3.0,-999.0,32,0.00,,,0.00,,2017-10-20 09:12:00,
2017-10-20 03:17:00,55.5,26.0,29.61,SSW,203,5.0,-999.0,32,0.00,,,0.00,,2017-10-20 09:17:00,
2017-10-20 03:22:00,55.3,26.0,29.61,WSW,248,2.0,-999.0,32,0.00,,,0.00,,2017-10-20 09:22:00,
2017-10-20 03:27:00,55.0,27.0,29.61,ESE,113,0.0,-999.0,34,0.00,,,0.00,,2017-10-20 09:27:00,
2017-10-20 03:32:00,54.7,26.0,29.60,South,180,0.0,-999.0,34,0.00,,,0.00,,2017-10-20 09:32:00,
2017-10-20 03:37:00,55.0,27.0,29.60,SE,135,2.0,-999.0,34,0.00,,,0.00,,2017-10-20 09:37:00,
2017-10-20 03:42:00,54.7,26.0,29.60,NW,315,0.0,-999.0,34,0.00,,,0.00,,2017-10-20 09:42:00,
2017-10-20 03:47:00,54.7,26.0,29.60,South,180,3.0,-999.0,34,0.00,,,0.00,,2017-10-20 09:47:00,
2017-10-20 03:52:00,54.2,27.0,29.60,WNW,293,1.0,-999.0,35,0.00,,,0.00,,2017-10-20 09:52:00,
2017-10-20 03:57:00,54.0,27.0,29.59,West,270,0.0,-999.0,35,0.00,,,0.00,,2017-10-20 09:57:00,
2017-10-20 04:02:00,53.8,27.0,29.59,SSE,158,4.0,-999.0,35,0.00,,,0.00,,2017-10-20 10:02:00,
2017-10-20 04:07:00,53.8,27.0,29.59,East,90,2.0,-999.0,35,0.00,,,0.00,,2017-10-20 10:07:00,
2017-10-20 04:12:00,54.0,28.0,29.59,East,90,3.0,-999.0,37,0.00,,,0.00,,2017-10-20 10:12:00,
2017-10-20 04:17:00,54.4,28.0,29.59,ESE,113,3.0,-999.0,35,0.00,,,0.00,,2017-10-20 10:17:00,
2017-10-20 04:22:00,54.2,28.0,29.59,SE,135,2.0,-999.0,37,0.00,,,0.00,,2017-10-20 10:22:00,
2017-10-20 04:27:00,54.0,28.0,29.59,ESE,113,4.0,-999.0,37,0.00,,,0.00,,2017-10-20 10:27:00,
2017-10-20 04:32:00,53.8,28.0,29.59,ESE,113,4.0,-999.0,37,0.00,,,0.00,,2017-10-20 10:32:00,
2017-10-20 04:37:00,53.2,28.0,29.59,SW,225,0.0,-999.0,37,0.00,,,0.00,,2017-10-20 10:37:00,
2017-10-20 04:42:00,53.1,28.0,29.59,South,180,2.0,-999.0,37,0.00,,,0.00,,2017-10-20 10:42:00,
2017-10-20 04:47:00,52.8,27.0,29.59,WSW,248,2.0,-999.0,37,0.00,,,0.00,,2017-10-20 10:47:00,
2017-10-20 04:53:00,52.8,28.0,29.59,SSE,158,3.0,-999.0,39,0.00,,,0.00,,2017-10-20 10:53:00,
2017-10-20 04:58:00,53.8,28.0,29.59,East,90,4.0,-999.0,37,0.00,,,0.00,,2017-10-20 10:58:00,
2017-10-20 05:03:00,53.8,28.0,29.58,East,90,2.0,-999.0,37,0.00,,,0.00,,2017-10-20 11:03:00,
2017-10-20 05:08:00,53.2,28.0,29.59,West,270,0.0,-999.0,37,0.00,,,0.00,,2017-10-20 11:08:00,
2017-10-20 05:13:00,52.6,28.0,29.59,NW,315,2.0,-999.0,39,0.00,,,0.00,,2017-10-20 11:13:00,
2017-10-20 05:18:00,52.3,28.0,29.59,North,0,0.0,-999.0,39,0.00,,,0.00,,2017-10-20 11:18:00,
2017-10-20 05:23:00,51.8,28.0,29.59,North,0,1.0,-999.0,40,0.00,,,0.00,,2017-10-20 11:23:00,
2017-10-20 05:28:00,51.5,28.0,29.58,West,270,0.0,-999.0,40,0.00,,,0.00,,2017-10-20 11:28:00,
2017-10-20 05:33:00,51.5,28.0,29.58,SW,225,2.0,-999.0,40,0.00,,,0.00,,2017-10-20 11:33:00,
2017-10-20 05:38:00,51.5,28.0,29.58,NW,315,2.0,-999.0,40,0.00,,,0.00,,2017-10-20 11:38:00,
2017-10-20 05:43:00,51.5,29.0,29.58,NW,315,2.0,-999.0,41,0.00,,,0.00,,2017-10-20 11:43:00,
2017-10-20 05:48:00,51.3,28.0,29.58,West,270,1.0,-999.0,41,0.00,,,0.00,,2017-10-20 11:48:00,
2017-10-20 05:53:00,51.0,28.0,29.58,NE,45,1.0,-999.0,41,0.00,,,0.00,,2017-10-20 11:53:00,
2017-10-20 05:58:00,52.6,29.0,29.57,SE,135,3.0,-999.0,40,0.00,,,0.00,,2017-10-20 11:58:00,
2017-10-20 06:03:00,53.1,29.0,29.57,WSW,248,2.0,-999.0,40,0.00,,,0.00,,2017-10-20 12:03:00,
2017-10-20 06:08:00,53.2,29.0,29.57,ESE,113,4.0,-999.0,40,0.00,,,0.00,,2017-10-20 12:08:00,
2017-10-20 06:13:00,54.2,29.0,29.56,ESE,113,3.0,-999.0,37,0.00,,,0.00,,2017-10-20 12:13:00,
2017-10-20 06:18:00,54.9,29.0,29.57,WSW,248,5.0,-999.0,37,0.00,,,0.00,,2017-10-20 12:18:00,
2017-10-20 06:23:00,54.9,29.0,29.56,SSE,158,5.0,-999.0,37,0.00,,,0.00,,2017-10-20 12:23:00,
2017-10-20 06:28:00,54.9,29.0,29.56,SW,225,4.0,-999.0,37,0.00,,,0.00,,2017-10-20 12:28:00,
2017-10-20 06:33:00,55.0,29.0,29.55,SSE,158,7.0,-999.0,37,0.00,,,0.00,,2017-10-20 12:33:00,
2017-10-20 06:38:00,54.7,28.0,29.55,South,180,4.0,-999.0,37,0.00,,,0.00,,2017-10-20 12:38:00,
2017-10-20 06:43:00,54.4,29.0,29.55,SW,225,4.0,-999.0,37,0.00,,,0.00,,2017-10-20 12:43:00,
2017-10-20 06:48:00,54.2,29.0,29.55,SE,135,5.0,-999.0,37,0.00,,,0.00,,2017-10-20 12:48:00,
2017-10-20 06:53:00,54.4,29.0,29.55,SSE,158,2.0,-999.0,37,0.00,,,0.00,,2017-10-20 12:53:00,
2017-10-20 06:58:00,54.4,29.0,29.55,South,180,4.0,-999.0,37,0.00,,,0.00,,2017-10-20 12:58:00,
2017-10-20 07:03:00,54.7,29.0,29.54,South,180,6.0,-999.0,37,0.00,,,0.00,,2017-10-20 13:03:00,
2017-10-20 07:08:00,55.0,29.0,29.54,ESE,113,8.0,-999.0,37,0.00,,,0.00,,2017-10-20 13:08:00,
2017-10-20 07:13:00,54.7,29.0,29.55,SW,225,8.0,-999.0,37,0.00,,,0.00,,2017-10-20 13:13:00,
2017-10-20 07:18:00,54.2,29.0,29.54,SSE,158,8.0,-999.0,37,0.00,,,0.00,,2017-10-20 13:18:00,
2017-10-20 07:23:00,54.4,29.0,29.54,South,180,6.0,-999.0,37,0.00,,,0.00,,2017-10-20 13:23:00,
2017-10-20 07:28:00,54.9,29.0,29.54,South,180,5.0,-999.0,37,0.00,,,0.00,,2017-10-20 13:28:00,
2017-10-20 07:33:00,55.1,30.0,29.54,SSW,203,8.0,-999.0,37,0.00,,,0.00,,2017-10-20 13:33:00,
2017-10-20 07:39:00,55.0,29.0,29.54,SE,135,4.0,-999.0,37,0.00,,,0.00,,2017-10-20 13:39:00,
2017-10-20 07:44:00,56.0,30.0,29.54,West,270,6.0,-999.0,37,0.00,,,0.00,,2017-10-20 13:44:00,
2017-10-20 07:49:00,56.7,30.0,29.54,South,180,7.0,-999.0,37,0.00,,,0.00,,2017-10-20 13:49:00,
2017-10-20 07:54:00,56.7,30.0,29.53,SSW,203,9.0,-999.0,37,0.00,,,0.00,,2017-10-20 13:54:00,
2017-10-20 07:59:00,56.9,30.0,29.54,South,180,7.0,-999.0,35,0.00,,,0.00,,2017-10-20 13:59:00,
2017-10-20 08:04:00,56.7,30.0,29.54,South,180,8.0,-999.0,35,0.00,,,0.00,,2017-10-20 14:04:00,
2017-10-20 08:09:00,56.7,30.0,29.54,SSE,158,8.0,-999.0,35,0.00,,,0.00,,2017-10-20 14:09:00,
2017-10-20 08:14:00,56.7,30.0,29.54,South,180,6.0,-999.0,35,0.00,,,0.00,,2017-10-20 14:14:00,
2017-10-20 08:25:00,57.3,30.0,29.53,South,180,8.0,-999.0,35,0.00,,,0.00,,2017-10-20 14:25:00,
2017-10-20 08:30:00,56.9,30.0,29.53,West,270,6.0,-999.0,35,0.00,,,0.00,,2017-10-20 14:30:00,
2017-10-20 08:35:00,56.7,30.0,29.53,South,180,7.0,-999.0,37,0.00,,,0.00,,2017-10-20 14:35:00,
2017-10-20 08:40:00,56.7,30.0,29.53,ESE,113,8.0,-999.0,37,0.00,,,0.00,,2017-10-20 14:40:00,
2017-10-20 08:45:00,56.7,31.0,29.53,SSE,158,6.0,-999.0,37,0.00,,,0.00,,2017-10-20 14:45:00,
2017-10-20 08:50:00,56.9,31.0,29.53,SE,135,5.0,-999.0,37,0.00,,,0.00,,2017-10-20 14:50:00,
2017-10-20 08:55:00,57.5,32.0,29.53,SSE,158,6.0,-999.0,37,0.00,,,0.00,,2017-10-20 14:55:00,
2017-10-20 09:00:00,58.5,32.0,29.52,SSE,158,6.0,-999.0,37,0.00,,,0.00,,2017-10-20 15:00:00,
2017-10-20 09:05:00,59.2,32.0,29.52,South,180,7.0,-999.0,37,0.00,,,0.00,,2017-10-20 15:05:00,
2017-10-20 09:10:00,59.7,32.0,29.52,ESE,113,7.0,-999.0,35,0.00,,,0.00,,2017-10-20 15:10:00,
2017-10-20 09:15:00,60.7,32.0,29.52,NE,45,5.0,-999.0,35,0.00,,,0.00,,2017-10-20 15:15:00,
2017-10-20 09:20:00,61.1,33.0,29.52,South,180,7.0,-999.0,35,0.00,,,0.00,,2017-10-20 15:20:00,
2017-10-20 09:25:00,61.5,33.0,29.52,ESE,113,9.0,-999.0,35,0.00,,,0.00,,2017-10-20 15:25:00,
2017-10-20 09:30:00,61.7,33.0,29.51,South,180,6.0,-999.0,35,0.00,,,0.00,,2017-10-20 15:30:00,
2017-10-20 09:35:00,62.4,34.0,29.51,South,180,9.0,-999.0,35,0.00,,,0.00,,2017-10-20 15:35:00,
2017-10-20 09:40:00,63.4,34.0,29.51,ESE,113,7.0,-999.0,34,0.00,,,0.00,,2017-10-20 15:40:00,
2017-10-20 09:45:00,64.6,34.0,29.51,East,90,9.0,-999.0,32,0.00,,,0.00,,2017-10-20 15:45:00,
2017-10-20 09:50:00,66.1,35.0,29.51,East,90,9.0,-999.0,31,0.00,,,0.00,,2017-10-20 15:50:00,
2017-10-20 09:55:00,66.9,35.0,29.51,SSW,203,12.0,-999.0,30,0.00,,,0.00,,2017-10-20 15:55:00,
2017-10-20 10:00:00,67.6,35.0,29.50,SE,135,11.0,-999.0,30,0.00,,,0.00,,2017-10-20 16:00:00,
2017-10-20 10:05:00,68.4,35.0,29.50,West,270,11.0,-999.0,30,0.00,,,0.00,,2017-10-20 16:05:00,
2017-10-20 10:11:00,69.3,36.0,29.50,ESE,113,10.0,-999.0,30,0.00,,,0.00,,2017-10-20 16:11:00,
2017-10-20 10:16:00,69.6,35.0,29.50,SE,135,13.0,-999.0,29,0.00,,,0.00,,2017-10-20 16:16:00,
2017-10-20 10:21:00,70.6,35.0,29.50,ESE,113,11.0,-999.0,27,0.00,,,0.00,,2017-10-20 16:21:00,
2017-10-20 10:26:00,71.4,36.0,29.49,SSE,158,8.0,-999.0,27,0.00,,,0.00,,2017-10-20 16:26:00,
2017-10-20 10:31:00,71.5,36.0,29.49,South,180,9.0,-999.0,27,0.00,,,0.00,,2017-10-20 16:31:00,
2017-10-20 10:32:00,71.8,36.0,29.49,SSE,158,11.0,-999.0,27,0.00,,,0.00,,2017-10-20 16:32:00,
2017-10-20 10:37:00,72.6,36.0,29.49,South,180,13.0,-999.0,27,0.00,,,0.00,,2017-10-20 16:37:00,
2017-10-20 10:42:00,73.0,37.0,29.48,ESE,113,10.0,-999.0,27,0.00,,,0.00,,2017-10-20 16:42:00,
2017-10-20 10:47:00,73.5,37.0,29.48,South,180,12.0,-999.0,27,0.00,,,0.00,,2017-10-20 16:47:00,
2017-10-20 10:52:00,73.4,36.0,29.48,ESE,113,9.0,-999.0,25,0.00,,,0.00,,2017-10-20 16:52:00,
2017-10-20 10:57:00,73.9,36.0,29.47,ESE,113,10.0,-999.0,25,0.00,,,0.00,,2017-10-20 16:57:00,
2017-10-20 11:02:00,74.4,37.0,29.47,SSE,158,13.0,-999.0,25,0.00,,,0.00,,2017-10-20 17:02:00,
2017-10-20 11:07:00,74.8,36.0,29.46,SSE,158,11.0,-999.0,25,0.00,,,0.00,,2017-10-20 17:07:00,
2017-10-20 11:12:00,75.6,37.0,29.46,ESE,113,11.0,-999.0,25,0.00,,,0.00,,2017-10-20 17:12:00,
2017-10-20 11:17:00,76.0,37.0,29.46,SW,225,14.0,-999.0,25,0.00,,,0.00,,2017-10-20 17:17:00,
2017-10-20 11:22:00,76.0,37.0,29.45,East,90,13.0,-999.0,25,0.00,,,0.00,,2017-10-20 17:22:00,
2017-10-20 11:28:00,76.5,38.0,29.45,South,180,9.0,-999.0,25,0.00,,,0.00,,2017-10-20 17:28:00,
2017-10-20 11:33:00,78.1,38.0,29.45,SE,135,11.0,-999.0,24,0.00,,,0.00,,2017-10-20 17:33:00,
2017-10-20 11:38:00,78.1,37.0,29.45,SW,225,10.0,-999.0,22,0.00,,,0.00,,2017-10-20 17:38:00,
2017-10-20 11:43:00,79.1,38.0,29.44,SE,135,11.0,-999.0,22,0.00,,,0.00,,2017-10-20 17:43:00,
2017-10-20 11:49:00,79.3,38.0,29.44,South,180,11.0,-999.0,22,0.00,,,0.00,,2017-10-20 17:49:00,
2017-10-20 11:54:00,79.6,38.0,29.44,ESE,113,11.0,-999.0,22,0.00,,,0.00,,2017-10-20 17:54:00,
2017-10-20 11:59:00,80.1,37.0,29.43,SSE,158,9.0,-999.0,22,0.00,,,0.00,,2017-10-20 17:59:00,
2017-10-20 12:04:00,80.3,38.0,29.42,SSE,158,10.0,-999.0,22,0.00,,,0.00,,2017-10-20 18:04:00,
2017-10-20 12:09:00,81.0,38.0,29.42,SSE,158,7.0,-999.0,22,0.00,,,0.00,,2017-10-20 18:09:00,
2017-10-20 12:14:00,81.9,38.0,29.41,South,180,10.0,-999.0,20,0.00,,,0.00,,2017-10-20 18:14:00,
2017-10-20 12:19:00,82.1,38.0,29.41,SW,225,13.0,-999.0,20,0.00,,,0.00,,2017-10-20 18:19:00,
2017-10-20 12:24:00,82.8,38.0,29.40,SW,225,8.0,-999.0,20,0.00,,,0.00,,2017-10-20 18:24:00,
2017-10-20 12:29:00,82.3,38.0,29.41,SSW,203,8.0,-999.0,20,0.00,,,0.00,,2017-10-20 18:29:00,
2017-10-20 12:35:00,82.8,37.0,29.40,West,270,9.0,-999.0,20,0.00,,,0.00,,2017-10-20 18:35:00,
2017-10-20 12:40:00,83.0,37.0,29.39,ESE,113,10.0,-999.0,20,0.00,,,0.00,,2017-10-20 18:40:00,
2017-10-20 12:45:00,83.2,38.0,29.39,South,180,9.0,-999.0,20,0.00,,,0.00,,2017-10-20 18:45:00,
2017-10-20 12:50:00,83.0,37.0,29.38,SSW,203,13.0,-999.0,20,0.00,,,0.00,,2017-10-20 18:50:00,
2017-10-20 12:55:00,83.2,38.0,29.38,WNW,293,5.0,-999.0,20,0.00,,,0.00,,2017-10-20 18:55:00,
2017-10-20 13:00:00,83.6,38.0,29.37,SE,135,11.0,-999.0,20,0.00,,,0.00,,2017-10-20 19:00:00,
2017-10-20 13:05:00,83.2,38.0,29.37,ESE,113,9.0,-999.0,20,0.00,,,0.00,,2017-10-20 19:05:00,
2017-10-20 13:11:00,83.8,37.0,29.37,SW,225,9.0,-999.0,19,0.00,,,0.00,,2017-10-20 19:11:00,
2017-10-20 13:16:00,83.6,37.0,29.36,SE,135,7.0,-999.0,19,0.00,,,0.00,,2017-10-20 19:16:00,
2017-10-20 13:21:00,83.9,37.0,29.36,SW,225,11.0,-999.0,19,0.00,,,0.00,,2017-10-20 19:21:00,
2017-10-20 13:26:00,84.2,37.0,29.36,SW,225,8.0,-999.0,19,0.00,,,0.00,,2017-10-20 19:26:00,
2017-10-20 13:31:00,83.8,37.0,29.35,East,90,7.0,-999.0,19,0.00,,,0.00,,2017-10-20 19:31:00,
2017-10-20 13:37:00,83.9,37.0,29.35,South,180,7.0,-999.0,19,0.00,,,0.00,,2017-10-20 19:37:00,
2017-10-20 13:42:00,84.6,37.0,29.35,SSW,203,9.0,-999.0,19,0.00,,,0.00,,2017-10-20 19:42:00,
2017-10-20 13:47:00,84.2,37.0,29.35,SW,225,12.0,-999.0,19,0.00,,,0.00,,2017-10-20 19:47:00,
2017-10-20 13:52:00,84.2,37.0,29.35,West,270,6.0,-999.0,19,0.00,,,0.00,,2017-10-20 19:52:00,
2017-10-20 13:57:00,84.6,37.0,29.34,South,180,7.0,-999.0,19,0.00,,,0.00,,2017-10-20 19:57:00,
2017-10-20 14:02:00,84.6,37.0,29.34,SSW,203,9.0,-999.0,19,0.00,,,0.00,,2017-10-20 20:02:00,
2017-10-20 14:07:00,83.9,37.0,29.34,SSW,203,13.0,-999.0,19,0.00,,,0.00,,2017-10-20 20:07:00,
2017-10-20 14:12:00,84.6,37.0,29.33,SSW,203,7.0,-999.0,19,0.00,,,0.00,,2017-10-20 20:12:00,
2017-10-20 14:17:00,85.3,38.0,29.34,South,180,10.0,-999.0,19,0.00,,,0.00,,2017-10-20 20:17:00,
2017-10-20 14:22:00,84.6,37.0,29.33,SE,135,10.0,-999.0,19,0.00,,,0.00,,2017-10-20 20:22:00,
2017-10-20 14:27:00,84.4,37.0,29.32,South,180,8.0,-999.0,19,0.00,,,0.00,,2017-10-20 20:27:00,
2017-10-20 14:32:00,84.6,37.0,29.32,SW,225,9.0,-999.0,19,0.00,,,0.00,,2017-10-20 20:32:00,
2017-10-20 14:38:00,84.6,37.0,29.32,SE,135,11.0,-999.0,19,0.00,,,0.00,,2017-10-20 20:38:00,
2017-10-20 14:43:00,84.8,38.0,29.32,SW,225,12.0,-999.0,19,0.00,,,0.00,,2017-10-20 20:43:00,
2017-10-20 14:48:00,84.8,38.0,29.32,SW,225,8.0,-999.0,19,0.00,,,0.00,,2017-10-20 20:48:00,
2017-10-20 14:53:00,84.8,38.0,29.32,SSW,203,6.0,-999.0,19,0.00,,,0.00,,2017-10-20 20:53:00,
2017-10-20 14:58:00,85.1,38.0,29.32,SW,225,9.0,-999.0,19,0.00,,,0.00,,2017-10-20 20:58:00,
2017-10-20 15:03:00,84.8,38.0,29.32,ESE,113,9.0,-999.0,19,0.00,,,0.00,,2017-10-20 21:03:00,
2017-10-20 15:08:00,85.1,38.0,29.32,West,270,10.0,-999.0,19,0.00,,,0.00,,2017-10-20 21:08:00,
2017-10-20 15:13:00,85.1,38.0,29.32,SW,225,9.0,-999.0,19,0.00,,,0.00,,2017-10-20 21:13:00,
2017-10-20 15:19:00,84.6,37.0,29.32,South,180,9.0,-999.0,19,0.00,,,0.00,,2017-10-20 21:19:00,
2017-10-20 15:24:00,84.6,37.0,29.32,South,180,10.0,-999.0,19,0.00,,,0.00,,2017-10-20 21:24:00,
2017-10-20 15:29:00,84.6,39.0,29.32,WSW,248,9.0,-999.0,20,0.00,,,0.00,,2017-10-20 21:29:00,
2017-10-20 15:34:00,84.8,39.0,29.31,SW,225,8.0,-999.0,20,0.00,,,0.00,,2017-10-20 21:34:00,
2017-10-20 15:39:00,84.6,39.0,29.31,NE,45,6.0,-999.0,20,0.00,,,0.00,,2017-10-20 21:39:00,
2017-10-20 15:44:00,84.6,39.0,29.31,WSW,248,10.0,-999.0,20,0.00,,,0.00,,2017-10-20 21:44:00,
2017-10-20 15:49:00,84.6,39.0,29.32,South,180,8.0,-999.0,20,0.00,,,0.00,,2017-10-20 21:49:00,
2017-10-20 15:54:00,83.8,38.0,29.31,South,180,9.0,-999.0,20,0.00,,,0.00,,2017-10-20 21:54:00,
2017-10-20 16:00:00,84.2,38.0,29.31,East,90,10.0,-999.0,20,0.00,,,0.00,,2017-10-20 22:00:00,
2017-10-20 16:05:00,83.8,38.0,29.31,West,270,8.0,-999.0,20,0.00,,,0.00,,2017-10-20 22:05:00,
2017-10-20 16:10:00,83.8,38.0,29.31,SSW,203,9.0,-999.0,20,0.00,,,0.00,,2017-10-20 22:10:00,
2017-10-20 16:16:00,82.3,38.0,29.31,SSW,203,7.0,-999.0,20,0.00,,,0.00,,2017-10-20 22:16:00,
2017-10-20 16:21:00,82.8,38.0,29.31,SW,225,5.0,-999.0,20,0.00,,,0.00,,2017-10-20 22:21:00,
2017-10-20 16:26:00,83.6,39.0,29.31,North,0,6.0,-999.0,20,0.00,,,0.00,,2017-10-20 22:26:00,
2017-10-20 16:31:00,83.0,39.0,29.31,SW,225,14.0,-999.0,20,0.00,,,0.00,,2017-10-20 22:31:00,
2017-10-20 16:36:00,82.6,38.0,29.31,SSE,158,6.0,-999.0,20,0.00,,,0.00,,2017-10-20 22:36:00,
2017-10-20 16:41:00,81.9,38.0,29.31,SSW,203,5.0,-999.0,20,0.00,,,0.00,,2017-10-20 22:41:00,